Location: Newark
(5.5500°N, 0.2500°W)
Time: 00:49:17
(UTC+00:00)

Hubble Space Telescope - Pass Details

Date: 29 September 2019
Orbit: 536 x 540 km, 28.5° (Epoch: 20 October)

Event Time Altitude Azimuth Distance (km) Brightness Sun altitude
Rises 18:17:49 0° 270° (W) 2,670 7.1 -6.8°
Reaches altitude 10° 18:20:35 10° 288° (WNW) 1,778 4.8 -7.5°
Maximum altitude 18:23:33 19° 334° (NNW) 1,301 3.0 -8.3°
Drops below altitude 10° 18:26:32 10° 21° (NNE) 1,775 3.2 -9.0°
Enters shadow 18:28:57 - 38° (NE) 2,544 3.8 -9.6°
